EW9136 Weather Reports


time (UTC)temp
C
wind
direction
speed
KPH
gust
KPH
rain 1hr
cm
rain 24hr
cm
rain mn
cm
humidity
%
barometer
mb
20260508121549 15 142 8.0 19.3 0.00 0.00 0.00 77 1017.4
20260508120053 14 163 16.1 29.0 0.00 0.00 0.00 76 1017.4
20260508114551 14 156 14.5 22.5 0.00 0.00 0.00 78 1017.4
20260508113045 14 159 9.7 20.9 0.00 0.00 0.00 78 1017.4
20260508111545 13 121 12.9 20.9 0.00 0.00 0.00 79 1017.4
20260508110045 14 178 14.5 22.5 0.00 0.00 0.00 79 1017.3
20260508104542 14 150 8.0 16.1 0.00 0.00 0.00 80 1017.3
20260508103047 14 102 8.0 22.5 0.00 0.00 0.00 78 1017.3
20260508101539 14 183 9.7 16.1 0.00 0.00 0.00 81 1017.3
20260508100048 13 140 6.4 16.1 0.00 0.00 0.00 83 1017.4
20260508094531 12 180 6.4 16.1 0.00 0.00 0.00 85 1017.3
20260508093034 11 149 1.6 17.7 0.00 0.00 0.00 88 1017.3
20260508091523 11 198 3.2 8.0 0.00 0.00 0.00 88 1017.4
20260508090012 10 148 0.0 6.4 0.00 0.00 0.00 89 1017.4
20260508084508 10 152 1.6 8.0 0.00 0.00 0.00 89 1017.4
20260508083005 10 252 6.4 12.9 0.00 0.00 0.00 88 1017.4
20260508081502 10 167 8.0 22.5 0.00 0.00 0.00 89 1017.0
20260508080101 10 73 1.6 9.7 0.00 0.00 0.00 90 1016.9
20260508074602 10 63 1.6 12.9 0.00 0.00 0.00 90 1016.8
20260508073054 9 72 3.2 12.9 0.00 0.00 0.00 90 1016.8
20260508071549 9 176 8.0 20.9 0.00 0.00 0.00 91 1016.6
20260508070045 8 166 12.9 22.5 0.00 0.00 0.00 91 1016.4
20260508064542 8 162 12.9 20.9 0.00 0.00 0.00 92 1016.3
20260508063042 8 121 14.5 19.3 0.00 0.00 0.00 92 1016.3
20260508061543 8 174 14.5 22.5 0.00 0.00 0.00 92 1016.2
20260508060054 8 152 11.3 22.5 0.00 0.00 0.00 92 1016.1
20260508054611 8 173 14.5 24.1 0.00 0.00 0.00 91 1016.0
20260508053048 8 177 9.7 19.3 0.00 0.00 0.00 91 1015.9
20260508051535 8 136 12.9 22.5 0.00 0.00 0.00 91 1015.9
20260508050037 8 147 12.9 20.9 0.00 0.00 0.00 90 1015.8
20260508044534 8 180 8.0 12.9 0.00 0.00 0.00 90 1015.7
20260508043036 8 154 6.4 17.7 0.00 0.00 0.00 90 1015.6
20260508041532 8 158 8.0 16.1 0.00 0.00 0.00 90 1015.7
20260508040033 8 165 9.7 19.3 0.00 0.00 0.00 90 1015.5
20260508034537 8 158 8.0 24.1 0.00 0.00 0.00 89 1015.4
20260508033034 8 182 8.0 24.1 0.00 0.00 0.00 89 1015.5
20260508031534 8 158 6.4 17.7 0.00 0.00 0.00 88 1015.6
20260508030029 8 152 8.0 20.9 0.00 0.00 0.00 87 1015.6
20260508024528 8 169 8.0 24.1 0.00 0.00 0.00 86 1015.6
20260508023027 8 187 16.1 30.6 0.00 0.00 0.00 86 1015.5
20260508021527 8 158 17.7 29.0 0.00 0.00 0.00 86 1015.4
20260508020024 8 140 19.3 27.4 0.00 0.00 0.00 87 1015.4
20260508014527 8 165 14.5 30.6 0.00 0.00 0.00 87 1015.4
20260508013017 8 161 17.7 25.7 0.00 0.00 0.00 88 1015.4
20260508011517 8 149 16.1 25.7 0.00 0.00 0.00 89 1015.4
20260508010026 8 129 17.7 29.0 0.00 0.00 0.00 89 1015.5
20260508004523 8 129 17.7 27.4 0.00 0.00 0.00 90 1015.6
20260508003012 8 169 16.1 29.0 0.00 0.00 0.00 90 1015.6
20260508001508 8 142 14.5 25.7 0.00 0.00 0.00 90 1015.7
20260508000005 8 131 17.7 29.0 0.00 0.00 0.00 90 1015.8
20260507234505 8 153 14.5 22.5 0.00 0.00 0.00 90 1015.8
20260507233006 8 144 16.1 24.1 0.00 0.00 0.00 90 1015.8
20260507231505 8 159 16.1 30.6 0.00 0.00 0.00 90 1015.8
20260507230004 8 127 16.1 29.0 0.00 0.00 0.00 90 1015.7
20260507224507 8 154 17.7 30.6 0.00 0.00 0.00 90 1015.7
20260507223003 8 134 14.5 25.7 0.00 0.00 0.00 90 1015.7
20260507221502 8 156 17.7 27.4 0.00 0.00 0.00 89 1015.8
20260507220004 8 154 19.3 30.6 0.00 0.00 0.00 89 1015.8
20260507214501 8 142 17.7 32.2 0.00 0.00 0.00 89 1015.8
20260507213002 8 137 19.3 33.8 0.00 0.00 0.00 89 1015.8
20260507211606 8 132 19.3 32.2 0.00 0.00 0.00 88 1015.8
20260507210104 8 173 19.3 33.8 0.00 0.00 0.00 87 1015.7
20260507204601 8 170 17.7 29.0 0.00 0.00 0.00 87 1015.8
20260507203103 8 153 14.5 30.6 0.00 0.00 0.00 86 1015.7
20260507201557 8 175 16.1 29.0 0.00 0.00 0.00 85 1015.6
20260507200058 9 136 12.9 24.1 0.00 0.00 0.00 84 1015.4
20260507194556 9 124 16.1 27.4 0.00 0.00 0.00 85 1015.2
20260507193056 10 150 17.7 29.0 0.00 0.00 0.00 85 1015.1
20260507191558 10 148 11.3 24.1 0.00 0.00 0.00 85 1015.1
20260507190055 10 165 14.5 25.7 0.00 0.00 0.00 85 1015.0
20260507184657 10 174 14.5 27.4 0.00 0.00 0.00 84 1014.9
20260507183054 10 136 11.3 24.1 0.00 0.00 0.00 84 1014.9
20260507181554 10 140 9.7 22.5 0.00 0.00 0.00 84 1014.8
20260507180058 10 144 12.9 22.5 0.00 0.00 0.00 84 1014.9
20260507174603 10 113 11.3 27.4 0.00 0.00 0.00 84 1014.9
20260507173051 10 171 12.9 25.7 0.00 0.00 0.00 83 1014.9
20260507171603 10 126 16.1 27.4 0.00 0.00 0.00 83 1014.9
20260507170048 11 120 14.5 24.1 0.00 0.00 0.00 82 1015.0
20260507164550 11 167 16.1 25.7 0.00 0.00 0.00 82 1015.2
20260507163050 11 114 14.5 24.1 0.00 0.00 0.00 82 1015.2
20260507161547 11 138 11.3 22.5 0.00 0.00 0.00 83 1015.2
20260507160051 10 149 8.0 20.9 0.00 0.00 0.00 82 1015.3
20260507154544 10 113 12.9 24.1 0.00 0.00 0.00 82 1015.3
20260507153046 10 143 14.5 25.7 0.00 0.00 0.00 81 1015.2
20260507151643 11 121 14.5 29.0 0.00 0.00 0.00 81 1015.3
20260507150041 11 139 11.3 25.7 0.00 0.00 0.00 81 1015.3
20260507144540 11 176 12.9 22.5 0.00 0.00 0.00 79 1015.3
20260507143043 12 170 11.3 29.0 0.00 0.00 0.00 79 1015.4
20260507141543 12 99 14.5 22.5 0.00 0.00 0.00 80 1015.5
20260507140038 12 131 8.0 27.4 0.00 0.00 0.00 79 1015.6
20260507134536 12 142 9.7 22.5 0.00 0.00 0.00 78 1015.6
20260507133036 12 138 9.7 19.3 0.00 0.00 0.00 78 1015.7
20260507131537 12 151 9.7 17.7 0.00 0.00 0.00 75 1015.7
20260507130040 13 192 11.3 19.3 0.00 0.00 0.00 74 1015.6
20260507124547 13 139 12.9 19.3 0.00 0.00 0.00 65 1015.6
20260507123031 13 168 11.3 25.7 0.00 0.00 0.00 67 1015.7